DW5256 Weather Reports


time (UTC)temp
F
wind
direction
speed
knots
gust
knots
rain 1hr
in
rain 24hr
in
rain mn
in
humidity
%
barometer
mb
20260510202049 72 203 2.6 9.6 0.00 0.00 0.00 64 1012.2
20260510200527 73 285 5.2 10.4 0.00 0.00 0.00 64 1012.3
20260510195019 73 220 2.6 10.4 0.00 0.00 0.00 64 1012.3
20260510193533 73 241 0.9 11.3 0.00 0.00 0.00 64 1012.2
20260510192054 73 260 3.5 9.6 0.00 0.00 0.00 65 1012.1
20260510190527 74 230 0.9 10.4 0.00 0.00 0.00 63 1012.0
20260510185016 73 259 0.9 8.7 0.00 0.00 0.00 64 1012.0
20260510183526 73 275 4.3 9.6 0.00 0.00 0.00 62 1011.9
20260510182014 73 271 0.9 7.0 0.00 0.00 0.00 64 1011.9
20260510180523 72 257 0.9 7.0 0.00 0.00 0.00 61 1011.9
20260510175054 71 230 3.5 7.8 0.00 0.00 0.00 63 1011.9
20260510173543 69 250 0.0 7.0 0.00 0.00 0.00 65 1012.0
20260510172030 69 265 0.0 7.0 0.00 0.00 0.00 67 1012.0
20260510170516 67 280 0.9 6.1 0.00 0.00 0.00 69 1012.1
20260510165025 67 280 0.0 6.1 0.00 0.00 0.00 71 1011.9
20260510163534 65 283 0.0 2.6 0.00 0.00 0.00 73 1011.8
20260510162022 64 271 0.0 0.0 0.00 0.00 0.00 74 1011.8
20260510160525 63 273 0.0 0.0 0.00 0.00 0.00 75 1011.7
20260510155015 62 271 0.0 0.0 0.00 0.00 0.00 77 1011.6
20260510153524 61 253 0.0 0.0 0.00 0.00 0.00 79 1011.6
20260510152031 60 253 0.0 0.0 0.00 0.00 0.00 81 1011.6
20260510150523 59 254 0.0 1.7 0.00 0.00 0.00 82 1011.7
20260510145034 59 253 0.0 0.0 0.00 0.00 0.00 82 1011.6
20260510143523 59 251 0.0 0.0 0.00 0.00 0.00 83 1011.3
20260510142020 59 244 0.9 4.3 0.00 0.00 0.00 83 1011.2
20260510140530 59 238 0.0 0.0 0.00 0.00 0.00 83 1011.0
20260510135018 59 238 0.0 0.0 0.00 0.00 0.00 83 1010.9
20260510133528 59 238 0.0 0.0 0.00 0.00 0.00 84 1010.8
20260510132035 59 238 0.0 0.0 0.00 0.00 0.00 84 1010.7
20260510130528 59 238 0.0 0.0 0.00 0.00 0.00 84 1010.7
20260510125043 59 238 0.0 0.0 0.00 0.00 0.00 84 1010.6
20260510123524 59 238 0.0 0.0 0.00 0.00 0.00 84 1010.7
20260510122019 59 238 0.0 0.0 0.00 0.00 0.00 84 1010.6
20260510120517 59 238 0.0 0.0 0.00 0.00 0.00 84 1010.6
20260510115034 59 238 0.0 0.0 0.00 0.00 0.00 84 1010.5
20260510113526 59 238 0.0 0.0 0.00 0.00 0.00 84 1010.6
20260510112019 59 227 0.0 0.0 0.00 0.00 0.00 85 1010.6
20260510110517 59 227 0.0 0.0 0.00 0.00 0.00 85 1010.6
20260510105051 59 227 0.0 0.0 0.00 0.00 0.00 85 1010.7
20260510103533 59 227 0.0 0.0 0.00 0.00 0.00 85 1010.7
20260510102051 59 227 0.0 0.0 0.00 0.00 0.00 85 1010.8
20260510100524 59 227 0.0 0.0 0.00 0.00 0.00 85 1010.8
20260510095022 59 227 0.0 0.0 0.00 0.00 0.00 85 1010.9
20260510093525 59 227 0.0 0.0 0.00 0.00 0.00 85 1010.9
20260510092035 59 227 0.0 0.0 0.00 0.00 0.00 85 1010.9
20260510090532 59 227 0.0 0.0 0.00 0.00 0.00 84 1010.9
20260510085024 59 227 0.0 0.0 0.00 0.00 0.00 84 1011.1
20260510083521 59 227 0.0 0.0 0.00 0.00 0.00 84 1011.2
20260510082017 59 227 0.0 0.0 0.00 0.00 0.00 85 1011.2
20260510080533 59 227 0.0 0.0 0.00 0.00 0.00 84 1011.4
20260510075031 59 227 0.0 0.0 0.00 0.00 0.00 84 1011.3
20260510073548 59 227 0.0 0.0 0.00 0.00 0.00 84 1011.4
20260510072023 59 227 0.0 0.0 0.00 0.00 0.00 84 1011.7
20260510070555 59 227 0.0 0.0 0.00 0.00 0.00 84 1011.6
20260510065020 59 227 0.0 0.0 0.00 0.00 0.00 84 1011.6
20260510063551 59 229 0.0 0.0 0.00 0.00 0.00 83 1011.8
20260510062029 59 229 0.0 0.0 0.00 0.00 0.00 83 1011.7
20260510060527 59 229 0.0 0.0 0.00 0.00 0.00 83 1011.8
20260510055022 59 229 0.0 0.0 0.00 0.00 0.00 83 1011.7
20260510053521 60 229 0.0 0.0 0.00 0.00 0.00 83 1011.7
20260510052015 59 229 0.0 0.0 0.00 0.00 0.00 83 1011.8
20260510050535 59 229 0.0 0.0 0.00 0.00 0.00 83 1011.8
20260510045029 59 229 0.0 0.0 0.00 0.00 0.00 83 1011.8
20260510043526 59 229 0.0 0.0 0.00 0.00 0.00 83 1011.8
20260510042023 59 229 0.0 0.0 0.00 0.00 0.00 82 1011.7
20260510040523 60 229 0.0 0.0 0.00 0.00 0.00 82 1011.5
20260510035019 60 229 0.0 0.0 0.00 0.00 0.00 81 1011.4
20260510033517 60 229 0.0 0.0 0.00 0.00 0.00 80 1011.1
20260510032015 61 229 0.0 0.0 0.00 0.00 0.00 80 1011.0
20260510030551 62 229 0.0 0.0 0.00 0.00 0.00 79 1010.8
20260510025049 62 229 0.0 0.0 0.00 0.00 0.00 77 1010.7
20260510023527 63 229 0.0 0.0 0.00 0.00 0.00 76 1010.5
20260510022025 64 229 0.0 0.0 0.00 0.00 0.00 74 1010.3
20260510020529 65 227 0.0 0.0 0.00 0.00 0.00 73 1010.5
20260510015027 66 227 0.0 6.1 0.00 0.00 0.00 72 1010.4
20260510013529 67 232 0.0 6.1 0.00 0.00 0.00 70 1010.4
20260510012048 68 198 0.9 7.8 0.00 0.00 0.00 69 1010.4
20260510010556 68 246 1.7 8.7 0.00 0.00 0.00 69 1010.4
20260510005031 70 250 1.7 7.0 0.00 0.00 0.00 67 1010.4
20260510003528 71 271 4.3 9.6 0.00 0.00 0.00 64 1010.2
20260510002027 72 236 2.6 7.8 0.00 0.00 0.00 63 1010.1
20260510000525 73 227 0.0 0.0 0.00 0.00 0.00 62 1010.3
20260509235021 72 253 0.0 7.0 0.00 0.00 0.00 64 1010.2
20260509233522 72 245 0.9 8.7 0.00 0.00 0.00 63 1010.2
20260509232018 72 222 0.9 7.0 0.00 0.00 0.00 64 1010.2
20260509230517 73 223 0.9 6.1 0.00 0.00 0.00 63 1010.4
20260509225014 73 229 0.9 7.8 0.00 0.00 0.00 63 1010.5
20260509223539 73 246 0.9 11.3 0.00 0.00 0.00 63 1010.5
20260509222036 73 257 0.9 8.7 0.00 0.00 0.00 64 1010.7
20260509220534 73 167 0.9 8.7 0.00 0.00 0.00 63 1010.8
20260509215029 73 267 1.7 8.7 0.00 0.00 0.00 62 1010.8
20260509213527 74 201 0.9 8.7 0.00 0.00 0.00 62 1010.8
20260509212020 73 228 1.7 10.4 0.00 0.00 0.00 63 1011.0
20260509210518 74 233 1.7 7.8 0.00 0.00 0.00 62 1011.1
20260509205036 73 242 1.7 8.7 0.00 0.00 0.00 63 1011.3
20260509203534 73 221 1.7 7.8 0.00 0.00 0.00 63 1011.2